Port Huron, MI

8:22 AM EST on November 18, 2019 (GMT -0500)
Saint Clair County International

Weather History for KPHN - September, 2019

Change the Weather History Date:

Saturday, September 21, 2019

  Actual Average (KMTC) Record (KMTC)
Temperature  
Mean Temperature 74 °F -  
Max Temperature 87 °F 66 °F 87 °F (2010)
Min Temperature 60 °F 49 °F 33 °F (1991)
Cooling Degree Days 8    
Growing Degree Days 24 (Base 50)    
Moisture  
Dew Point 64 °F    
Average Humidity 78    
Maximum Humidity 94    
Minimum Humidity 45    
Precipitation  
Precipitation 0.00 in - - ()
Sea Level Pressure  
Sea Level Pressure 30.14 in    
Wind  
Wind Speed 2 mph (SSW)    
Max Wind Speed 13 mph    
Max Gust Speed 18 mph    
Visibility 6 miles    
Events Fog , Rain    
Averages and records for this station are not official NWS values.
T = Trace of Precipitation, MM = Missing Value Source: NWS Daily Summary

Daily Weather History Graph

Daily Weather History Graph

Search for Another Location

Airport or City:

Astronomy

Sep. 21, 2019 Rise Set
Actual Time 7:16 AM EDT 7:29 PM EDT
Civil Twilight 6:47 AM EDT 7:57 PM EDT
Nautical Twilight 6:14 AM EDT 8:31 PM EDT
Astronomical Twilight 5:40 AM EDT 9:04 PM EDT
Moon 11:56 PM EDT (9/21) 2:30 PM EDT (9/21)
Length of Visible Light 13h 10m
Length of Day
12h 13m
Waning Gibbous, 55% of the Moon is Illuminated
Sep 21
Waning Gibbous
Sep 21
Last Quarter
Sep 28
New
Oct 5
First Quarter
Oct 13
Full

Hourly Weather History & Observations

Time (EDT) Temp. Heat Index Dew Point Humidity Pressure Visibility Wind Dir Wind Speed Gust Speed Precip Events Conditions
12:15 AM 66.2 °F - 62.6 °F 88% 30.16 in 4.0 mi Calm Calm - N/A   Mostly Cloudy
12:35 AM 64.4 °F - 60.8 °F 88% 30.16 in 2.0 mi Calm Calm - N/A   Overcast
12:36 AM 64.4 °F - 60.8 °F 88% 30.16 in 2.5 mi Calm Calm - N/A   Overcast
12:55 AM 64.4 °F - 60.8 °F 88% 30.16 in 4.0 mi Calm Calm - N/A   Scattered Clouds
12:56 AM 64.4 °F - 62.6 °F 94% 30.16 in 4.0 mi Calm Calm - N/A   Scattered Clouds
1:15 AM 62.6 °F - 60.8 °F 94% 30.16 in 0.2 mi Calm Calm - N/A Fog Fog
1:35 AM 60.8 °F - 59.0 °F 94% 30.16 in 0.2 mi Calm Calm - N/A Fog Fog
1:36 AM 60.8 °F - 59.0 °F 94% 30.16 in 0.2 mi Calm Calm - N/A Fog Fog
1:55 AM 62.6 °F - 59.0 °F 88% 30.16 in 0.2 mi Calm Calm - N/A Fog Fog
1:56 AM 62.6 °F - 59.0 °F 88% 30.16 in 0.2 mi Calm Calm - N/A Fog Fog
2:15 AM 62.6 °F - 60.8 °F 94% 30.16 in 4.0 mi Calm Calm - N/A   Overcast
2:35 AM 64.4 °F - 60.8 °F 88% 30.16 in 1.2 mi Calm Calm - N/A   Overcast
2:55 AM 62.6 °F - 59.0 °F 88% 30.16 in 0.5 mi Calm Calm - N/A Fog Fog
2:56 AM 62.6 °F - 59.0 °F 88% 30.16 in 0.5 mi Calm Calm - N/A Fog Fog
3:15 AM 62.6 °F - 59.0 °F 88% 30.16 in 0.2 mi Calm Calm - N/A Fog Fog
3:35 AM 60.8 °F - 59.0 °F 94% 30.16 in 0.2 mi Calm Calm - N/A Fog Fog
3:55 AM 60.8 °F - 59.0 °F 94% 30.16 in 0.2 mi Calm Calm - N/A Fog Fog
3:56 AM 60.8 °F - 59.0 °F 94% 30.16 in 0.2 mi Calm Calm - N/A Fog Fog
4:15 AM 60.8 °F - 59.0 °F 94% 30.16 in 0.2 mi Calm Calm - N/A Fog Fog
4:35 AM 60.8 °F - 57.2 °F 88% 30.15 in 0.5 mi Calm Calm - N/A Fog Fog
4:55 AM 60.8 °F - 57.2 °F 88% 30.16 in 0.5 mi Calm Calm - N/A Fog Fog
4:56 AM 60.8 °F - 57.2 °F 88% 30.16 in 0.5 mi Calm Calm - N/A Fog Fog
5:15 AM 60.8 °F - 59.0 °F 94% 30.16 in 1.5 mi Calm Calm - N/A   Overcast
5:16 AM 60.8 °F - 59.0 °F 94% 30.16 in 1.5 mi Calm Calm - N/A   Overcast
5:35 AM 60.8 °F - 59.0 °F 94% 30.16 in 5.0 mi Calm Calm - N/A   Overcast
5:55 AM 62.6 °F - 59.0 °F 88% 30.16 in 5.0 mi Calm Calm - N/A   Scattered Clouds
6:15 AM 62.6 °F - 59.0 °F 88% 30.16 in 1.0 mi Calm Calm - N/A   Mist
6:16 AM 62.6 °F - 59.0 °F 88% 30.16 in 0.8 mi Calm Calm - N/A   Mist
6:35 AM 60.8 °F - 59.0 °F 94% 30.16 in 0.2 mi Calm Calm - N/A Fog Fog
6:55 AM 60.8 °F - 57.2 °F 88% 30.17 in 1.2 mi Calm Calm - N/A   Scattered Clouds
7:15 AM 60.8 °F - 59.0 °F 94% 30.17 in 1.2 mi Calm Calm - N/A   Scattered Clouds
7:16 AM 60.8 °F - 59.0 °F 94% 30.17 in 1.2 mi Calm Calm - N/A   Scattered Clouds
7:35 AM 60.8 °F - 57.2 °F 88% 30.17 in 3.0 mi Calm Calm - N/A   Scattered Clouds
7:36 AM 60.8 °F - 57.2 °F 88% 30.17 in 3.0 mi Calm Calm - N/A   Scattered Clouds
7:55 AM 60.8 °F - 57.2 °F 88% 30.18 in 1.8 mi Calm Calm - N/A   Scattered Clouds
8:15 AM 62.6 °F - 59.0 °F 88% 30.18 in 2.0 mi Calm Calm - N/A   Clear
8:35 AM 64.4 °F - 62.6 °F 94% 30.18 in 2.0 mi Calm Calm - N/A   Clear
8:36 AM 64.4 °F - 62.6 °F 94% 30.18 in 2.0 mi Calm Calm - N/A   Clear
8:55 AM 68.0 °F - 66.2 °F 94% 30.19 in 3.0 mi Calm Calm - N/A   Scattered Clouds
8:56 AM 68.0 °F - 66.2 °F 94% 30.19 in 3.0 mi Calm Calm - N/A   Scattered Clouds
9:15 AM 69.8 °F - 66.2 °F 88% 30.18 in 7.0 mi Calm Calm - N/A   Scattered Clouds
9:35 AM 71.6 °F - 68.0 °F 88% 30.18 in 10.0 mi South 3.5 mph - N/A   Scattered Clouds
9:55 AM 71.6 °F - 68.0 °F 88% 30.18 in 10.0 mi Calm Calm - N/A   Mostly Cloudy
9:56 AM 71.6 °F - 68.0 °F 88% 30.18 in 10.0 mi Calm Calm - N/A   Mostly Cloudy
10:15 AM 75.2 °F - 68.0 °F 78% 30.18 in 10.0 mi South 3.5 mph - N/A   Scattered Clouds
10:35 AM 77.0 °F - 68.0 °F 74% 30.17 in 10.0 mi SSW 5.8 mph - N/A   Clear
10:55 AM 78.8 °F - 66.2 °F 65% 30.17 in 10.0 mi South 4.6 mph - N/A   Clear
10:56 AM 78.8 °F - 68.0 °F 69% 30.17 in 10.0 mi South 5.8 mph - N/A   Clear
11:15 AM 80.6 °F 83.2 °F 68.0 °F 65% 30.17 in 10.0 mi SW 3.5 mph - N/A   Clear
11:16 AM 80.6 °F 82.7 °F 66.2 °F 61% 30.17 in 10.0 mi SSW 3.5 mph - N/A   Clear
11:35 AM 82.4 °F 85.4 °F 68.0 °F 62% 30.16 in 10.0 mi South 5.8 mph - N/A   Clear
11:55 AM 82.4 °F 84.6 °F 66.2 °F 58% 30.16 in 10.0 mi South 5.8 mph - N/A   Clear
12:15 PM 84.2 °F 86.6 °F 66.2 °F 55% 30.15 in 10.0 mi South 6.9 mph - N/A   Clear
12:16 PM 84.2 °F 86.6 °F 66.2 °F 55% 30.15 in 10.0 mi South 8.1 mph - N/A   Clear
12:35 PM 86.0 °F 87.3 °F 64.4 °F 48% 30.15 in 10.0 mi South 9.2 mph - N/A   Clear
12:36 PM 86.0 °F 87.3 °F 64.4 °F 48% 30.15 in 10.0 mi South 10.4 mph - N/A   Clear
12:55 PM 86.0 °F 86.6 °F 62.6 °F 45% 30.14 in 10.0 mi SW 4.6 mph - N/A   Clear
1:16 PM 86.0 °F 87.3 °F 64.4 °F 48% 30.14 in 10.0 mi SSW 9.2 mph - N/A   Clear
1:35 PM 86.0 °F 87.3 °F 64.4 °F 48% 30.13 in 10.0 mi SSW 10.4 mph 16.1 mph N/A   Clear
1:36 PM 86.0 °F 87.3 °F 64.4 °F 48% 30.13 in 10.0 mi SSW 12.7 mph 16.1 mph N/A   Clear
1:55 PM 86.0 °F 87.3 °F 64.4 °F 48% 30.13 in 10.0 mi SSW 6.9 mph - N/A   Clear
2:15 PM 86.0 °F 87.3 °F 64.4 °F 48% 30.13 in 10.0 mi South 11.5 mph - N/A   Clear
2:36 PM 86.0 °F 87.3 °F 64.4 °F 48% 30.12 in 10.0 mi South 8.1 mph - N/A   Clear
2:55 PM 86.0 °F 87.3 °F 64.4 °F 48% 30.11 in 10.0 mi SSW 8.1 mph - N/A   Clear
3:15 PM 87.8 °F 89.4 °F 64.4 °F 46% 30.12 in 10.0 mi SSW 10.4 mph - N/A   Clear
3:35 PM 78.8 °F - 60.8 °F 54% 30.13 in 10.0 mi SW 11.5 mph 18.4 mph N/A   Scattered Clouds
3:36 PM 78.8 °F - 60.8 °F 54% 30.13 in 10.0 mi SSW 10.4 mph 18.4 mph N/A   Mostly Cloudy
3:55 PM 77.0 °F - 62.6 °F 61% 30.11 in 10.0 mi South 4.6 mph - N/A Rain Light Rain
3:56 PM 77.0 °F - 62.6 °F 61% 30.11 in 10.0 mi South 4.6 mph - N/A   Light Drizzle
4:15 PM 82.4 °F 84.6 °F 66.2 °F 58% 30.10 in 10.0 mi South 6.9 mph - N/A   Scattered Clouds
4:35 PM 80.6 °F 82.7 °F 66.2 °F 61% 30.09 in 10.0 mi South 5.8 mph - N/A   Clear
4:55 PM 82.4 °F 85.4 °F 68.0 °F 62% 30.09 in 10.0 mi SSW 5.8 mph - N/A   Clear
4:56 PM 82.4 °F 85.4 °F 68.0 °F 62% 30.09 in 10.0 mi South 5.8 mph - N/A   Clear
5:15 PM 82.4 °F 85.4 °F 68.0 °F 62% 30.09 in 10.0 mi South 10.4 mph - N/A   Clear
5:55 PM 82.4 °F 84.6 °F 66.2 °F 58% 30.09 in 10.0 mi South 9.2 mph - N/A   Clear
5:56 PM 82.4 °F 84.6 °F 66.2 °F 58% 30.09 in 10.0 mi South 8.1 mph - N/A   Clear
6:15 PM 78.8 °F - 66.2 °F 65% 30.09 in 10.0 mi South 8.1 mph - N/A   Clear
6:16 PM 78.8 °F - 66.2 °F 65% 30.09 in 10.0 mi South 8.1 mph - N/A   Clear
6:35 PM 78.8 °F - 66.2 °F 65% 30.09 in 10.0 mi SSW 4.6 mph - N/A   Clear
6:55 PM 77.0 °F - 68.0 °F 74% 30.09 in 10.0 mi South 3.5 mph - N/A   Clear
7:15 PM 77.0 °F - 68.0 °F 74% 30.09 in 10.0 mi SSW 3.5 mph - N/A   Clear
7:16 PM 77.0 °F - 68.0 °F 74% 30.09 in 10.0 mi SSW 3.5 mph - N/A   Clear
7:35 PM 77.0 °F - 68.0 °F 74% 30.09 in 10.0 mi South 3.5 mph - N/A   Clear
7:55 PM 77.0 °F - 68.0 °F 74% 30.12 in 5.0 mi West 4.6 mph - N/A Rain Heavy Rain
8:15 PM 73.4 °F - 68.0 °F 83% 30.10 in 7.0 mi Calm Calm - N/A Rain Light Rain
8:16 PM 73.4 °F - 68.0 °F 83% 30.10 in 7.0 mi Calm Calm - N/A Rain Light Rain
8:36 PM 71.6 °F - 66.2 °F 83% 30.10 in 3.0 mi Calm Calm - N/A   Haze
8:55 PM 71.6 °F - 68.0 °F 88% 30.10 in 1.8 mi Calm Calm - N/A   Mist
9:15 PM 69.8 °F - 66.2 °F 88% 30.10 in 0.5 mi Calm Calm - N/A Fog Fog
9:16 PM 69.8 °F - 66.2 °F 88% 30.10 in 0.2 mi Calm Calm - N/A Fog Fog
9:35 PM 69.8 °F - 66.2 °F 88% 30.10 in 0.2 mi Calm Calm - N/A Fog Fog
9:36 PM 68.0 °F - 66.2 °F 94% 30.10 in 0.2 mi Calm Calm - N/A Fog Fog
9:55 PM 69.8 °F - 66.2 °F 88% 30.11 in 0.5 mi SSW 3.5 mph - N/A Fog Fog
10:15 PM 69.8 °F - 66.2 °F 88% 30.11 in 10.0 mi SSW 3.5 mph - N/A   Clear
10:35 PM 69.8 °F - 66.2 °F 88% 30.11 in 10.0 mi Calm Calm - N/A   Clear
10:36 PM 69.8 °F - 66.2 °F 88% 30.11 in 10.0 mi Calm Calm - N/A   Clear
10:55 PM 69.8 °F - 66.2 °F 88% 30.10 in 10.0 mi SSW 3.5 mph - N/A   Clear
10:56 PM 69.8 °F - 66.2 °F 88% 30.10 in 10.0 mi SSW 3.5 mph - N/A   Clear
11:15 PM 69.8 °F - 66.2 °F 88% 30.10 in 10.0 mi South 3.5 mph - N/A   Clear
11:35 PM 69.8 °F - 66.2 °F 88% 30.09 in 10.0 mi Calm Calm - N/A   Clear
11:55 PM 69.8 °F - 66.2 °F 88% 30.09 in 10.0 mi Calm Calm - N/A   Scattered Clouds
11:56 PM 69.8 °F - 66.2 °F 88% 30.09 in 10.0 mi Calm Calm - N/A   Scattered Clouds